Regional Weather Roundup
Issued by NWS Goodland, KS

Home | Current Version | Previous Version | Graphics & Text | Print | Product List | Glossary On
Versions: 1 2 3 4 5 6 7 8 9 10 11 12 13 14 15 16 17 18 19 20 21 22 23 24 25 26 27 28 29 30 31 32 33 34 35 36 37 38 39 40 41 42 43 44 45 46 47 48 49 50
000
ASUS43 KGLD 221559
RWRGLD

GOODLAND FORECAST AREA HOURLY WEATHER ROUNDUP
NATIONAL WEATHER SERVICE GOODLAND KS
900 AM MST MON DEC 22 2014

...OFFICIAL OBSERVATIONS...

CITY           SKY/WX    TMP DP  RH WIND       PRES   REMARKS
GOODLAND KS    PTSUNNY   37  30  75 NW13      29.70F
HILL CITY KS   PTSUNNY   45  32  60 NW16G23   29.64R
IMPERIAL NEB   PTSUNNY   39  27  62 NW17      29.64F
MCCOOK NEB     CLOUDY    40  32  73 W8        29.62F
AKRON CO       MOSUNNY   31  26  82 W10       29.71F
BURLINGTON CO  MOSUNNY   37  28  70 NW20      29.72S
LIMON CO       MOSUNNY   29  24  82 W7        29.75S
$$

...UNOFFICIAL OBSERVATIONS...

CITY           SKY/WX    TMP DP  RH WIND       PRES   REMARKS
COLBY KS       CLOUDY    39  36  87 NW20G28   29.67F
GOVE KS          N/A     41  32  70 MISG        N/A
NORTON KS      MOSUNNY   39  30  70 W16G22    29.61S
TRIBUNE KS     MOSUNNY   41  34  75 NW28G35   29.74R
KIT CARSON CO    N/A     36  28  72 MISG        N/A
YUMA CO          N/A     33  26  77 NW17        N/A
$$


USA.gov is the U.S. government's official web portal to all federal, state and local government web resources and services.